Regional Weather Roundup
Issued by NWS

Home | Current Version | Previous Version | Text Only | Print | Product List | Glossary On
Versions: 1 2 3 4 5 6 7 8 9 10 11 12 13 14 15 16 17 18 19 20 21 22 23 24 25 26 27
000
ASUS44 KJAN 221410
RWRMS

MISSISSIPPI HOURLY WEATHER ROUNDUP
NATIONAL WEATHER SERVICE JACKSON MS
800 AM CST WED FEB 22 2017

NOTE: "FAIR: INDICATES FEW OR NO CLOUDS BELOW 12,000 FEET WITH NO
SIGNIFICANT WEATHER AND/OR OBSTRUCTIONS TO VISIBILITY.

MSZ001>002-007>008-010>013-018>021-025>028-034>036-221500-
NORTHWEST MISSISSIPPI

CITY           SKY/WX    TMP DP  RH WIND       PRES   REMARKS
BATESVILLE     DRIZZLE   58  57  97 N3        29.90R
CLEVELAND      PTSUNNY   55  55 100 N3        29.88R
GREENWOOD      FOG       57  55  93 NE6       29.88R VSB 1/2
GREENVILLE     FOG       54  54 100 N8        29.88R VSB 1/4
OLIVE BRANCH   CLOUDY   N/A N/A N/A NE5       29.88S
OXFORD         CLOUDY    55  55 100 N6        29.91R
TUNICA         PTSUNNY   57  55  94 CALM      29.90R
WINONA         CLOUDY    57  57 100 CALM      29.87S FOG
$$

MSZ003>006-009-014>017-022>024-029>033-037>039-221500-
NORTHEAST MISSISSIPPI

CITY           SKY/WX    TMP DP  RH WIND       PRES   REMARKS
COLUMBUS AFB   CLOUDY    59  58  99 NW5       29.86R
CORINTH        CLOUDY    57  55  94 N6        29.89S
TUPELO         CLOUDY    58  56  93 N6        29.87S
$$

MSZ040-058-221500-
CENTRAL MISSISSIPPI

CITY           SKY/WX    TMP DP  RH WIND       PRES   REMARKS
JACKSON INTL   FOG       55  54  96 N5        29.86R VSB 1/4
JACKSON HAWKNS FOG       51  51 100 NW7       29.87S VSB<1/4
MADISON        FOG      N/A N/A N/A CALM      29.87R VSB 1/2
MERIDIAN KEY   CLOUDY    59  59 100 N6        29.86R FOG
MERIDIAN NAS   NOT AVBL
VICKSBURG VKS  FOG       55  55 100 N8        29.87R VSB 0
$$

MSZ059>079-221500-
SOUTH MISSISSIPPI

CITY           SKY/WX    TMP DP  RH WIND       PRES   REMARKS
BROOKHAVEN     FAIR     N/A N/A N/A CALM      29.87S
COLUMBIA       FAIR      52 N/A N/A CALM      29.88F
HATTIESBURG    FOG       53  52  96 NW5       29.87R VSB 1/2
LAUREL         CLOUDY    55  55 100 NW5       29.86R VSB<1/4
MCCOMB         FAIR      57  52  83 N5        29.87R
NATCHEZ        CLOUDY    55  54  94 N5        29.88S
PINE BELT      CLOUDY    52  48  87 N7        29.87S VSB 1/2
$$

MSZ080>082-221500-
COASTAL MISSISSIPPI

CITY           SKY/WX    TMP DP  RH WIND       PRES   REMARKS
BAY ST LOUIS   SUNNY     54  50  87 N6        29.85R
BILOXI         FOG       55  55 100 CALM      29.83R VSB 1/2
PASCAGOULA     PTSUNNY   60  57  89 VRB5      29.82S
GULFPORT       CLOUDY    54  54 100 N6        29.84R FOG
$$

LAZ007>009-015>016-023>026-221500-
NORTHEAST LOUISIANA

CITY           SKY/WX    TMP DP  RH WIND       PRES   REMARKS
BASTROP        CLOUDY    55  55  97 CALM      29.90R FOG
TALLULAH/VBURG FOG       55  54  96 NE6       29.89S VSB 1/4
VIDALIA        CLOUDY    57  56  95 N5        29.88S
$$




USA.gov is the U.S. government's official web portal to all federal, state and local government web resources and services.